Lexington Weather

Lexington, Massachusetts, USA

54°F
12/10/2019 4:32pm 
  • Lexington Conditions: Light rain, Overcast
  • Temperature: 54.0°F / 12.2°CColder 0.7°F than last hour.
  • Dew Point: 52.5°FDecreased 0.2°Fsince last hour.
  • Relative Humidity: 95%Increased 2.0% since last hour.
  • Wind: Wind from WSW WSW 4 mph, 10-min avg: 3 mph, gust: 11 mph
  • Barometer: 29.71 inRising 0.03  inHg/hr Rising Slowly
  • Visibility: 10 miles
  • Rain Today: 0.04 in
  •   

Regional Weather Roundup
for Boston / Norton, MA

        
000
ASUS41 KBOX 081300
RWRBOX

REGIONAL WEATHER ROUNDUP
NATIONAL WEATHER SERVICE BOSTON/NORTON MA
800 AM EST SUN DEC 08 2019

NOTE:  "FAIR" INDICATES FEW OR NO CLOUDS BELOW 12,000 FEET WITH NO 
SIGNIFICANT WEATHER AND/OR OBSTRUCTIONS TO VISIBILITY.

MAZALL-081400-
EASTERN MASSACHUSETTS
  
CITY           SKY/WX    TMP DP  RH WIND       PRES   REMARKS
BOSTON         FAIR      24  15  68 S3        30.55R                  
BEVERLY        FAIR      14   9  80 W3        30.53R                  
LAWRENCE       FAIR      10   8  92 S3        30.54S                  
BEDFORD        FAIR       5   2  87 CALM      30.53R                  
BLUE HILL        N/A     18  11  74 W8        30.49R WCI   8          
NORWOOD        FAIR      14   8  77 CALM      30.55R                  
MARSHFIELD     NOT AVBL                                               
PLYMOUTH       FAIR      15  13  91 CALM      30.55R                  
TAUNTON        FAIR      13   9  84 CALM      30.55R                  
NEW BEDFORD    FAIR      18  14  84 CALM      30.55R                  
$$

MAZALL-081400-
CAPE COD AND THE ISLANDS
  
CITY           SKY/WX    TMP DP  RH WIND       PRES   REMARKS
FALMOUTH       NOT AVBL                                               
HYANNIS        NOT AVBL                                               
CHATHAM        FAIR      26  19  74 W3        30.55R                  
PROVINCETOWN   FAIR      30  21  69 W8        30.55R WCI  22          
NANTUCKET      FAIR      26  20  77 W3        30.55R                  
MARTHAS VNYRD  FAIR      18  13  80 CALM      30.55R                  
$$
 
MAZALL-081400-
CENTRAL AND WESTERN MASSACHUSETTS
  
CITY           SKY/WX    TMP DP  RH WIND       PRES   REMARKS
WORCESTER      FAIR      16   7  67 W7        30.47R WCI   6          
FITCHBURG      FAIR       1  -4  79 CALM      30.52S                  
ORANGE         MOCLDY    -4 -10  75 CALM      30.53R                  
SPRINGFIELD    NOT AVBL                                               
WESTFIELD      FAIR       2  -2  83 CALM      30.54S                  
NORTH ADAMS    FAIR       0  -5  79 CALM      30.50S                  
PITTSFIELD     HAZE       3  -2  79 CALM      30.44S VSB 1/4          
$$
 
RIZALL-081400-
RHODE ISLAND
  
CITY           SKY/WX    TMP DP  RH WIND       PRES   REMARKS
PROVIDENCE     FAIR      20  15  81 W3        30.56R                  
NEWPORT        FAIR      24  17  74 CALM      30.55R                  
BLOCK ISLAND   FAIR      27  19  72 CALM      30.56R                  
SMITHFIELD     FAIR      17  11  77 CALM      30.52S                  
WESTERLY       FAIR      21  14  74 CALM      30.57R                  
$$
 
CTZALL-081400-
CONNECTICUT
  
CITY           SKY/WX    TMP DP  RH WIND       PRES   REMARKS
BRADLEY INTL   FAIR      12   3  67 CALM      30.54S                  
HARTFORD       FAIR      14  13  95 CALM      30.56S                  
BRIDGEPORT     FAIR      22  17  81 N6        30.56R WCI  14          
DANBURY        FAIR      14  11  87 SW3       30.54R                  
GROTON         NOT AVBL                                               
NEW HAVEN      FAIR      21  17  84 CALM      30.56R                  
CHESTER        FAIR      19  14  79 CALM      30.53R                  
MERIDEN        FAIR      16  12  84 CALM      30.56S                  
WILLIMANTIC    FAIR      10   7  87 CALM      30.57R                  
OXFORD         FAIR      12  10  92 CALM      30.51R                  
$$

MEZ002-015-021-024-NHZ003-005-008-011-012-014-VTZ005-008-081400-
NORTHERN NEW ENGLAND
  
CITY           SKY/WX    TMP DP  RH WIND       PRES   REMARKS
PORTLAND ME    FAIR      11   4  73 CALM      30.52R                  
BANGOR ME      FAIR       6   4  91 CALM      30.48R                  
CONCORD NH     FAIR       0  -3  87 CALM      30.51S                  
MANCHESTER NH  FAIR       4   0  83 CALM      30.50S                  
NASHUA NH      FAIR       1  -2  87 NW3       30.53S                  
PORTSMOUTH NH  CLEAR     13  10  86 W5        30.51R WCI   5          
JAFFREY NH     FAIR     -10 -14  82 S3        30.45S                  
KEENE NH       FAIR      -7 -10  87 CALM      30.53R                  
BURLINGTON VT  FAIR       8   5  87 CALM      30.41F                  
MT. WASHINGTON PTCLDY     7  -8  51 W32         N/A  WCI -17          
$$

NYZ052-076-081400-
EASTERN NEW YORK
  
CITY           SKY/WX    TMP DP  RH WIND       PRES   REMARKS
ALBANY         FAIR       5   2  87 CALM      30.52S                  
NEW YORK CITY  FAIR      30  16  56 E6        30.55R WCI  24          
$$
 
ANZALL-081400-
MARINE OBSERVATIONS
  
STATION/POSITION TIME  TEMP    WIND        PRES    VSBY  WAVE
                       AIR SEA DIR/SP/G                  HT/PER
                 (UTC) (F)     (DEG/KT/KT) (MB)    (MI)  (FT/S)
BOSTON BUOY      1150   28 47  290/  8/ 10 1033.3          2/ 3
BUZZARDS BAY     1200   27     350/  5/  7 1034.8R
NANTUCKET SOUND  1240   29 41                N/A
MASS BAY-STELLWA 1204   27 46  320/ 10/ 12 1031.9R  1 7/8  2/ 3
ISLE OF SHOALS   1200   22     280/ 10/ 12 1032.8R
S OF BLOCK IS    1230      52                N/A           1/ 3
$$

......................KEY.........................
  SKY/WX - SKY CONDITION/PRESENT WEATHER
  TMP    - TEMPERATURE IN FAHRENHEIT
  DWPT   - DEWPOINT IN FAHRENHEIT
  RH     - RELATIVE HUMIDITY IN PERCENT
  WIND   - DIRECTION AND SPEED IN MPH
  PRES   - MEAN SEA LEVEL PRESSURE IN INCHES OF HG
  WCI    - WIND CHILL INDEX
  VSB    - VISIBILITY IN MILES
  HX     - HEAT INDEX
  TC     - TEMPERATURE IN CELSIUS
  VRB    - VARIABLE WIND DIRECTION
  N/A    - NOT AVAILABLE
  
      

Other recent Regional Weather Roundups

Tue Dec 10, 4:10pm

Tue Dec 10, 4:01pm

Tue Dec 10, 3:10pm

Tue Dec 10, 3:01pm

Tue Dec 10, 2:10pm

Tue Dec 10, 2:01pm

Tue Dec 10, 1:10pm

Tue Dec 10, 1:00pm

Tue Dec 10, 12:10pm

Tue Dec 10, 12:00pm

Tue Dec 10, 11:10am

Tue Dec 10, 11:00am

Tue Dec 10, 10:10am

Tue Dec 10, 10:00am

Tue Dec 10, 9:10am

Tue Dec 10, 9:01am

Tue Dec 10, 8:10am

Tue Dec 10, 8:00am

Tue Dec 10, 7:10am

Tue Dec 10, 7:00am

Tue Dec 10, 6:10am

Tue Dec 10, 6:00am

Tue Dec 10, 5:10am

Tue Dec 10, 5:00am

Tue Dec 10, 4:10am

Tue Dec 10, 4:00am

Tue Dec 10, 3:10am

Tue Dec 10, 3:00am

Tue Dec 10, 2:10am

Tue Dec 10, 2:01am

Tue Dec 10, 1:10am

Tue Dec 10, 1:00am

Tue Dec 10, 12:10am

Tue Dec 10, 12:01am

Mon Dec 9, 11:10pm

Mon Dec 9, 11:01pm

Mon Dec 9, 10:10pm

Mon Dec 9, 10:00pm

Mon Dec 9, 9:10pm

Mon Dec 9, 9:01pm

Mon Dec 9, 8:10pm

Mon Dec 9, 8:01pm

Mon Dec 9, 7:10pm

Mon Dec 9, 7:00pm

Mon Dec 9, 6:10pm

Mon Dec 9, 6:00pm

Mon Dec 9, 5:10pm

Mon Dec 9, 5:01pm

Mon Dec 9, 4:10pm

Mon Dec 9, 4:01pm

Mon Dec 9, 3:10pm

Mon Dec 9, 3:01pm

Mon Dec 9, 2:10pm

Mon Dec 9, 2:00pm

Mon Dec 9, 1:10pm

Mon Dec 9, 1:00pm

Mon Dec 9, 12:10pm

Mon Dec 9, 12:00pm

Mon Dec 9, 11:10am

Mon Dec 9, 11:00am

Mon Dec 9, 10:10am

Mon Dec 9, 10:00am

Mon Dec 9, 9:10am

Mon Dec 9, 9:00am

Mon Dec 9, 8:10am

Mon Dec 9, 8:00am

Mon Dec 9, 7:10am

Mon Dec 9, 7:00am

Mon Dec 9, 6:10am

Mon Dec 9, 6:00am

Mon Dec 9, 5:10am

Mon Dec 9, 5:00am

Mon Dec 9, 4:10am

Mon Dec 9, 4:00am

Mon Dec 9, 3:10am

Mon Dec 9, 3:00am

Mon Dec 9, 2:10am

Mon Dec 9, 2:00am

Mon Dec 9, 1:10am

Mon Dec 9, 1:00am

Mon Dec 9, 12:10am

Mon Dec 9, 12:00am

Sun Dec 8, 11:10pm

Sun Dec 8, 11:00pm

Sun Dec 8, 10:10pm

Sun Dec 8, 10:01pm

Sun Dec 8, 9:10pm

Sun Dec 8, 9:01pm

Sun Dec 8, 8:10pm

Sun Dec 8, 8:00pm

Sun Dec 8, 7:10pm

Sun Dec 8, 7:00pm

Sun Dec 8, 6:10pm

Sun Dec 8, 6:01pm

Sun Dec 8, 5:10pm

Sun Dec 8, 5:00pm

Sun Dec 8, 4:10pm

Sun Dec 8, 4:01pm

Sun Dec 8, 3:10pm

Sun Dec 8, 3:01pm

Sun Dec 8, 2:10pm

Sun Dec 8, 2:01pm

Sun Dec 8, 1:10pm

Sun Dec 8, 1:00pm

Sun Dec 8, 12:10pm

Sun Dec 8, 12:01pm

Sun Dec 8, 11:10am

Sun Dec 8, 11:00am

Sun Dec 8, 10:10am

Sun Dec 8, 10:01am

Sun Dec 8, 9:10am

Sun Dec 8, 9:00am

Sun Dec 8, 8:10am

Sun Dec 8, 7:10am

Sun Dec 8, 7:00am

Sun Dec 8, 6:10am

Sun Dec 8, 6:00am

Sun Dec 8, 5:10am

Sun Dec 8, 5:00am

Sun Dec 8, 4:10am

Sun Dec 8, 4:00am

Sun Dec 8, 3:10am

Sun Dec 8, 3:00am

Sun Dec 8, 2:10am

Sun Dec 8, 2:00am

Sun Dec 8, 1:10am

Sun Dec 8, 1:00am

Sun Dec 8, 12:10am

Sun Dec 8, 12:01am

Sat Dec 7, 11:10pm

Sat Dec 7, 11:00pm

Sat Dec 7, 10:10pm

Sat Dec 7, 10:00pm

Sat Dec 7, 9:10pm

Sat Dec 7, 9:00pm

Sat Dec 7, 8:10pm

Sat Dec 7, 8:00pm

Sat Dec 7, 7:10pm

Sat Dec 7, 7:00pm

Sat Dec 7, 6:10pm

Sat Dec 7, 6:00pm

Sat Dec 7, 5:10pm

Sat Dec 7, 5:00pm

Meta data:

ID: c6d720e8-5fe9-4478-a4b4-ff5328aaea5f
Link: https://api.weather.gov/products/c6d720e8-5fe9-4478-a4b4-ff5328aaea5f